Home > Weather > Camrose > Past weeks

Flag for Canada Weather for the Past 2 Weeks in Camrose, Alberta, Canada

Now
36 °F

Overcast.


Feels Like: 22 °F
Forecast: 20 / 29 °F
Wind: 32 mph from Northwest

Location: Edmonton International

Current Time: Feb 6, 2016 at 6:53:05 PM

Latest Report: Feb 6, 2016 at 6:00 PM


Visibility: 15 mi

Pressure: 30.01 "Hg (27.37 "Hg at 744m altitude)

Humidity: 48%

Dew point: 18 °F

Location of CamroseLocation

Historic Weather in Camrose — Graph

°F

Camrose Temperature Yesterday

Maximum temperature yesterday: 37 °F (at 3:00 PM)
Minimum temperature yesterday: 12 °F (at 12:00 AM)
Average temperature yesterday: 27 °F

High & Low Weather Summary for the Past Weeks

 TemperatureHumidityPressure
High46 °F (Jan 28, 6:00 PM)100% (Jan 24, 12:00 PM)30.20 "Hg (Jan 24, 12:00 PM)
Low1 °F (Feb 3, 10:00 PM)42% (Feb 6, 10:00 AM)29.33 "Hg (Jan 28, 3:00 PM)
Average23 °F78%29.89 "Hg
* Reported Jan 22 5:00 PM — Feb 6 5:00 PM, Camrose, Weather by CustomWeather, © 2016

Note: Actual official high and low records may vary slightly from our data, if they occured in-between our weather recording intervals... More about our weather records

Advertising

Camrose Weather History for the Previous 24 Hours

 ConditionsComfort  
Time TempWeatherWind HumidityBarometerVisibility
5:00 PM
Sat, Feb 6
37 °FBroken clouds.25 mph45%29.95 "Hg15 mi
4:00 PM37 °FPartly sunny.30 mph45%29.90 "Hg15 mi
3:00 PM39 °FBroken clouds.33 mph45%29.83 "Hg15 mi
2:00 PM39 °FPartly sunny.24 mph42%29.79 "Hg15 mi
1:00 PM39 °FPartly sunny.25 mph42%29.77 "Hg15 mi
12:00 PM39 °FPartly sunny.25 mph42%29.76 "Hg15 mi
11:00 AM39 °FPartly sunny.26 mph42%29.74 "Hg15 mi
10:00 AM39 °FBroken clouds.29 mph42%29.70 "Hg15 mi
9:00 AM37 °FBroken clouds.22 mph48%29.66 "Hg15 mi
8:00 AM39 °FMostly cloudy.21 mph52%29.62 "Hg15 mi
7:00 AM39 °FMostly cloudy.16 mph56%29.58 "Hg15 mi
6:00 AM36 °FMostly cloudy.10 mph65%29.55 "Hg15 mi
5:00 AM34 °FOvercast.6 mph70%29.53 "Hg15 mi
4:00 AM34 °FPassing clouds.7 mph65%29.51 "Hg15 mi
3:00 AM37 °FPassing clouds.13 mph60%29.47 "Hg15 mi
2:00 AM39 °FPassing clouds.14 mph61%29.49 "Hg15 mi
1:00 AM41 °FMostly cloudy.21 mph57%29.51 "Hg15 mi
12:00 AM36 °FMostly cloudy.9 mph70%29.54 "Hg15 mi
11:00 PM
Fri, Feb 5
34 °FMostly cloudy.2 mph81%29.57 "Hg15 mi
10:00 PM36 °FMostly cloudy.9 mph70%29.60 "Hg15 mi
9:00 PM32 °FPartly cloudy.6 mph75%29.65 "Hg15 mi
8:00 PM32 °FPassing clouds.13 mph75%29.67 "Hg15 mi
7:00 PM32 °FPassing clouds.10 mph75%29.71 "Hg15 mi
6:00 PM32 °FPassing clouds.5 mph75%29.73 "Hg15 mi
Weather by CustomWeather, © 2016

See weather overviewHow to use our weather pages